Home > Weather > Gevelsberg > Past weeks

Flag for Germany Past Weather in Gevelsberg, North Rhine-Westphalia, Germany — Yesterday and Last 2 Weeks

Now
63 °F

Broken clouds.


Feels Like: 63 °F
Forecast: 49 / 63 °F
Wind: 10 mph from Southwest

Location: Dortmund / Wickede

Current Time: Jun 27, 2016 at 8:34:34 PM

Latest Report: Jun 27, 2016 at 7:50 PM


Visibility: N/A

Pressure: 30.04 "Hg

Humidity: 77%

Dew Point: 55 °F

Location of GevelsbergLocation

Past Weather in Gevelsberg — Graph

°F

Gevelsberg Temperature Yesterday

Maximum temperature yesterday: 66 °F (at 2:50 PM)
Minimum temperature yesterday: 52 °F (at 5:20 AM)
Average temperature yesterday: 59 °F

High & Low Weather Summary for the Past Weeks

 TemperatureHumidityPressure
High90 °F (Jun 23, 3:20 PM)94% (Jun 13, 9:20 AM)30.24 "Hg (Jun 13, 9:20 AM)
Low48 °F (Jun 20, 5:20 AM)38% (Jun 23, 3:20 PM)29.47 "Hg (Jun 14, 2:50 PM)
Average62 °F74%29.90 "Hg
* Reported Jun 12 7:20 PM — Jun 27 7:20 PM, Gevelsberg, Weather by CustomWeather, © 2016

Note: Actual official high and low records may vary slightly from our data, if they occured in-between our weather recording intervals... More about our weather records

Advertising

Gevelsberg Weather History for the Previous 24 Hours

Scroll right to see more
 ConditionsComfort  
Time TempWeatherWind HumidityBarometerVisibility
7:20 PM
Mon, Jun 27
63 °FPartly sunny.12 mph77%30.04 "HgN/A
6:50 PM61 °FPartly sunny.10 mph88%30.04 "HgN/A
6:20 PM61 °FPartly sunny.10 mph88%30.04 "HgN/A
5:50 PM61 °FSprinkles. Partly sunny.10 mph83%30.07 "Hg5 mi
5:20 PM61 °FSprinkles. Partly sunny.10 mph83%30.07 "HgN/A
4:50 PM61 °FSprinkles. Partly sunny.13 mph77%30.07 "HgN/A
4:20 PM63 °FPartly sunny.13 mph73%30.07 "HgN/A
3:50 PM63 °FPartly sunny.10 mph73%30.07 "HgN/A
3:20 PM63 °FPartly sunny.13 mph68%30.07 "HgN/A
2:50 PM64 °FPartly sunny.14 mph68%30.04 "HgN/A
2:20 PM63 °FPartly sunny.13 mph68%30.07 "HgN/A
1:50 PM63 °FPartly sunny.14 mph64%30.07 "HgN/A
1:20 PM63 °FPartly sunny.13 mph64%30.07 "HgN/A
12:50 PM63 °FPartly sunny.14 mph64%30.07 "HgN/A
12:20 PM63 °FPartly sunny.14 mph59%30.07 "HgN/A
11:50 AM63 °FPartly sunny.16 mph59%30.07 "HgN/A
11:20 AM63 °FPartly sunny.15 mph59%30.07 "HgN/A
10:50 AM61 °FPartly sunny.15 mph63%30.07 "HgN/A
10:20 AM61 °FPartly sunny.14 mph63%30.07 "HgN/A
9:50 AM61 °FPartly sunny.10 mph63%30.07 "HgN/A
9:20 AM59 °FPassing clouds.14 mph68%30.07 "HgN/A
8:50 AM59 °FPassing clouds.14 mph68%30.09 "HgN/A
8:20 AM59 °FPassing clouds.13 mph68%30.07 "HgN/A
7:50 AM57 °FSunny.13 mph72%30.07 "Hg10 mi
7:20 AM55 °FSunny.12 mph77%30.07 "Hg10 mi
6:50 AM54 °FSunny.10 mph82%30.07 "Hg10 mi
6:20 AM54 °FSunny.9 mph82%30.07 "Hg10 mi
5:50 AM52 °FClear.9 mph88%30.07 "Hg10 mi
5:20 AM52 °FClear.8 mph88%30.07 "Hg10 mi
9:50 PM
Sun, Jun 26
57 °FSunny.7 mph72%30.07 "Hg10 mi
9:20 PM57 °FSunny.7 mph72%30.04 "Hg10 mi
8:50 PM59 °FSunny.7 mph68%30.04 "Hg10 mi
8:20 PM61 °FSunny.8 mph63%30.04 "Hg10 mi
Weather by CustomWeather, © 2016

See weather overviewHow to use our weather pages